Location: Le Petit-Vavre
(46.5081°N, 1.5239°E)
Time: 18:30:23
(UTC+00:00)

Cosmos 1271 Rocket - Pass Details

Date: 03 March 2021
Orbit: 498 x 544 km, 81.2° (Epoch: 14 April)

Event Time Altitude Azimuth Distance (km) Brightness Sun altitude
Rises 18:29:15 0° 344° (NNW) 2,601 6.5 -8.8°
Reaches altitude 10° 18:31:25 10° 338° (NNW) 1,713 5.6 -9.1°
Maximum altitude 18:35:02 48° 264° (W) 659 3.8 -9.8°
Drops below altitude 10° 18:38:39 10° 189° (S) 1,708 5.4 -10.4°
Sets 18:40:49 0° 184° (S) 2,593 6.3 -10.8°
